Theta_e
315 316 316 316 316 316 316 316 316 316 314 314 314 314 314 314 313 304 296 302 306 311 310 300 297 294 294 291 291 287 280 278 280 281 281 284 283 287 288 287 287 288 286 289 291
316 316 316 316 316 316 316 316 316 316 315 313 314 313 313 313 304 299 305 309 309 309 298 294 293 294 290 289 289 284 279 282 283 282 281 284 283 283 283 284 284 285 288 289 290
316 316 317 317 318 317 316 316 316 316 315 315 313 313 313 310 298 297 307 307 307 306 300 297 295 294 288 289 287 285 282 285 285 286 286 285 283 284 282 282 285 285 287 288 287
316 316 317 317 318 318 317 316 315 315 315 315 313 313 314 303 286 298 305 306 307 305 298 296 293 289 287 285 288 282 286 286 288 288 286 283 284 283 284 284 288 288 287 287 286
316 316 316 316 317 318 317 316 315 315 314 314 313 312 305 294 294 302 307 303 302 299 295 294 291 289 286 286 286 283 285 288 287 287 285 286 284 284 284 286 287 287 288 286 286
317 316 316 316 317 317 317 315 314 312 313 313 312 311 299 288 299 300 299 300 299 297 294 293 290 291 288 286 285 287 287 286 287 286 286 285 283 284 284 284 285 286 285 286 285
318 317 316 317 317 317 316 314 311 311 312 313 311 307 296 292 297 298 299 297 298 297 294 295 294 290 289 286 290 287 283 285 286 286 285 285 282 281 284 285 284 284 284 286 286
318 317 317 317 317 317 316 312 309 311 312 311 311 302 287 297 294 298 298 296 298 299 297 297 296 292 289 290 288 283 282 279 285 285 285 284 277 283 283 283 283 283 282 283 284
318 317 318 318 317 317 316 313 309 310 309 309 299 293 287 301 293 296 297 295 295 296 296 298 294 289 288 282 280 281 277 278 281 285 283 282 278 283 284 283 282 282 281 282 282
317 317 318 318 317 317 315 310 308 306 304 304 297 288 291 289 293 295 295 296 293 293 293 291 288 283 282 280 274 278 277 279 277 281 281 279 279 283 284 282 282 281 280 281 281
314 314 315 317 317 317 306 297 292 292 293 289 289 288 290 292 295 293 295 293 292 289 282 287 281 280 282 283 283 280 278 277 278 282 279 279 278 281 283 283 282 280 280 280 278
312 313 313 314 317 314 298 292 290 291 288 293 292 290 292 292 287 291 295 287 286 281 284 282 279 286 287 286 283 281 277 277 279 281 279 277 277 282 280 280 281 281 279 278 277
311 311 312 315 315 298 293 293 298 296 287 290 289 289 289 290 286 288 290 288 284 282 282 279 284 288 286 282 281 279 278 277 277 278 278 276 274 274 279 280 279 280 279 277 276
310 311 312 313 304 297 292 298 300 297 281 286 285 288 290 289 284 291 291 288 285 281 282 281 287 285 283 281 281 276 281 279 278 272 269 275 267 274 277 278 279 279 277 275 274
309 310 313 310 303 298 297 299 299 294 273 285 284 292 289 285 285 286 290 287 281 282 281 279 282 282 281 282 283 278 281 278 277 270 266 272 263 273 275 276 277 278 276 274 275
309 309 310 304 298 295 298 297 295 282 276 281 284 284 283 285 285 286 287 288 287 282 282 281 285 284 284 284 283 282 280 278 276 273 262 268 269 272 272 273 274 274 275 276 275
308 306 303 300 295 298 297 295 280 281 286 281 280 282 281 280 282 283 282 280 279 279 277 282 282 283 284 281 282 279 275 264 263 260 264 272 269 274 274 274 274 273 274 272 274
306 304 300 298 299 297 296 285 273 274 284 287 284 283 280 282 282 284 281 281 284 283 280 277 276 280 283 281 279 278 273 267 260 261 264 273 265 273 272 269 266 268 267 273 273
309 301 299 298 298 299 293 274 274 280 285 284 285 283 282 280 280 282 278 279 281 283 277 277 278 281 281 281 280 277 273 276 263 262 262 265 271 277 276 272 269 268 275 272 272
303 298 296 297 296 298 283 278 282 286 286 286 283 285 281 276 278 279 278 282 282 284 283 280 274 280 279 282 280 278 279 270 266 260 259 265 265 270 271 269 270 270 271 271 271
301 293 295 298 298 293 276 274 285 287 287 284 283 283 279 276 278 279 281 282 284 283 284 281 278 277 278 273 272 274 272 273 271 267 260 262 266 269 270 267 269 271 272 268 268
299 286 293 298 285 285 285 286 288 284 285 285 283 282 278 277 276 279 280 283 286 285 280 282 278 276 277 275 277 276 269 270 266 263 261 265 269 265 265 263 265 270 273 268 269
291 290 295 295 277 280 285 284 285 284 284 283 283 284 280 275 274 279 281 285 286 283 281 282 278 273 275 275 276 271 273 270 267 266 261 263 268 264 261 265 270 266 266 267 270
290 284 287 289 288 281 283 283 283 286 285 286 285 284 277 270 278 273 280 283 284 284 286 284 278 276 274 272 270 267 267 272 271 261 260 266 268 277 270 268 269 266 265 262 263
292 285 283 282 284 284 284 284 283 282 284 285 282 281 277 273 274 272 279 281 283 285 284 281 275 276 277 276 268 268 265 269 270 265 269 264 263 273 275 272 265 260 259 261 261
288 284 286 284 285 284 284 282 283 284 283 282 280 283 282 278 278 277 278 279 279 282 281 280 275 275 273 269 264 266 266 268 272 262 266 269 272 274 262 256 261 262 258 259 258
293 293 290 286 284 282 283 282 284 285 286 288 285 283 281 282 282 282 283 282 281 278 280 279 277 274 268 269 270 267 265 265 263 260 270 265 271 259 267 262 263 264 261 262 261
Wind_Speed
10 10 10 11 11 10 9 10 9 8 7 7 7 6 7 8 12 2 1 3 5 10 11 7 3 1 3 3 3 3 4 3 3 5 2 1 1 2 4 4 1 4 4 5 4
10 11 11 11 11 11 11 10 10 7 7 6 6 5 6 7 2 0 2 5 6 7 4 6 3 5 3 1 2 5 4 7 1 1 3 1 1 1 1 3 3 4 2 3 3
9 10 11 12 12 12 12 11 10 9 7 6 5 5 4 3 2 3 3 4 4 4 3 2 3 1 2 2 2 3 5 3 2 4 2 2 2 2 3 6 9 7 10 7 4
8 10 11 12 12 13 13 13 12 9 9 7 5 4 4 0 3 2 2 3 5 5 4 2 1 1 3 3 2 3 4 4 4 4 4 3 2 4 7 7 4 7 4 7 8
7 9 10 11 13 14 14 15 13 12 9 6 5 3 0 0 4 3 2 3 2 2 2 1 1 0 3 1 1 3 3 4 2 3 5 2 7 7 9 8 6 7 6 6 6
6 8 10 11 13 15 16 14 13 12 8 4 3 1 1 3 4 3 1 2 3 3 3 4 2 1 1 2 3 1 3 7 7 4 4 3 2 4 4 2 8 8 9 8 8
6 7 10 13 14 15 16 14 12 8 4 2 2 1 1 3 2 2 2 1 1 1 2 1 1 1 2 1 1 2 6 7 6 5 3 2 8 12 6 6 8 9 9 8 7
5 6 9 12 14 16 16 13 7 4 0 2 0 0 4 1 0 2 2 1 2 2 2 1 2 1 1 0 2 2 1 4 1 6 2 5 10 5 4 8 11 10 9 7 6
5 6 7 10 13 15 15 11 3 2 1 1 0 1 5 1 1 1 2 1 1 0 1 1 1 1 2 3 3 1 4 4 6 7 3 5 8 6 7 8 10 9 9 8 6
9 10 8 9 12 15 14 0 1 2 2 1 2 1 1 2 1 1 2 1 1 0 1 1 3 2 2 3 5 4 4 5 6 2 4 7 18 16 9 11 14 10 8 8 7
11 12 13 11 11 16 7 2 5 2 4 2 2 2 2 1 1 1 2 2 1 1 3 2 2 7 8 7 1 2 3 6 3 2 3 9 13 21 11 12 12 10 9 9 6
12 13 13 13 10 12 3 5 2 2 6 3 3 2 2 2 2 1 1 1 2 3 2 2 7 3 3 3 5 3 3 6 6 2 3 6 18 20 4 5 7 9 7 7 5
14 14 14 11 8 5 4 3 1 3 1 3 0 1 1 1 2 3 1 2 4 3 6 6 0 4 2 3 3 4 5 3 4 7 2 8 9 5 4 2 1 5 6 6 6
15 15 16 11 2 3 3 1 2 2 4 2 0 1 1 1 3 1 1 1 2 4 3 6 2 5 4 5 5 2 2 2 1 5 3 5 9 8 4 7 4 5 6 6 3
13 15 10 6 0 2 2 2 1 1 5 2 1 1 1 2 2 0 1 1 4 3 5 5 4 5 4 4 5 4 1 1 3 3 5 1 4 10 3 8 7 8 7 6 4
13 11 8 2 3 2 2 1 2 6 7 1 1 2 2 3 2 0 1 1 1 2 3 6 1 2 3 3 2 4 4 4 3 4 4 4 4 10 5 7 1 2 6 4 4
7 6 2 2 2 3 1 3 6 5 2 4 2 2 2 3 1 2 2 2 3 2 2 2 2 1 0 2 2 5 5 4 7 6 7 2 1 14 7 6 6 8 6 5 6
8 6 5 2 3 3 0 6 3 5 2 1 1 3 2 4 2 3 1 3 2 1 1 1 3 1 3 1 3 3 6 7 6 3 6 3 8 10 5 4 4 4 4 3 5
6 1 1 3 4 1 3 3 9 5 1 3 5 1 1 0 1 3 2 3 2 4 3 3 2 0 2 1 1 3 2 3 8 1 3 4 8 10 2 5 4 6 4 6 5
1 1 2 5 3 1 4 5 2 2 1 1 2 1 3 3 2 2 3 4 2 2 1 1 4 1 1 1 2 1 3 3 4 1 6 6 7 8 5 5 5 7 6 7 5
2 2 1 4 1 2 4 5 2 2 1 2 2 2 3 3 2 1 3 1 2 3 5 4 2 1 1 4 7 1 1 3 4 4 6 4 10 8 7 6 7 8 5 6 4
2 2 3 2 3 1 2 2 2 2 1 1 1 1 3 2 2 3 3 1 2 1 1 1 2 4 3 2 2 1 6 4 6 6 1 3 13 3 5 6 5 8 6 3 3
2 2 1 1 3 3 2 2 1 2 3 3 3 5 1 3 2 3 1 4 4 2 2 3 3 3 1 1 1 2 4 3 4 3 6 6 11 1 2 6 7 6 5 3 3
2 2 2 2 1 3 3 2 3 2 1 2 1 1 2 2 3 3 2 2 2 4 2 3 3 4 4 3 4 2 3 5 5 4 4 10 11 16 7 8 7 5 4 4 5
2 3 4 2 2 2 2 2 3 4 1 3 2 5 5 1 2 4 3 2 2 2 2 2 4 3 7 11 5 6 7 8 10 7 8 6 8 14 14 9 5 3 4 4 5
3 4 1 2 3 4 4 4 5 3 5 4 5 4 6 5 6 3 2 3 2 2 2 2 3 1 6 2 4 7 10 10 12 3 12 12 25 12 4 4 5 6 5 6 5
1 1 3 5 4 3 4 5 4 3 4 1 4 1 3 7 2 3 3 1 2 1 3 2 2 2 6 2 5 8 9 12 5 4 9 7 13 2 4 5 6 6 7 8 7
Wind_Direction
12 13 5 1 358 359 356 354 355 351 346 339 340 335 332 333 327 38 30 278 311 322 324 284 315 336 45 52 46 90 62 247 247 168 167 12 122 312 326 126 247 23 104 161 153
9 6 1 358 353 350 346 347 342 336 329 323 328 327 332 341 328 100 245 310 315 326 356 15 12 351 35 86 11 98 134 220 163 123 146 115 125 268 263 197 241 91 38 116 77
4 2 358 351 347 344 342 339 332 323 317 308 310 315 334 338 321 187 305 303 304 330 267 295 293 350 129 128 189 165 205 208 189 154 148 191 250 245 210 249 218 209 186 176 152
358 356 351 348 343 341 339 334 327 318 310 300 294 308 330 155 304 193 265 291 292 312 308 314 336 98 145 191 183 237 248 249 175 159 164 209 171 266 211 230 185 203 153 161 172
355 346 345 342 338 336 336 332 327 319 307 279 280 309 341 334 251 201 214 315 307 309 8 23 86 153 182 195 182 207 285 309 339 282 240 173 222 223 241 228 157 158 171 186 183
346 338 336 333 334 333 336 331 326 318 309 260 249 322 193 252 140 151 140 7 19 58 39 34 133 234 174 196 172 279 281 274 275 257 235 217 282 145 254 156 177 178 203 202 189
334 330 327 328 332 332 334 330 327 319 314 214 206 230 290 241 155 150 121 141 34 79 123 61 2 187 144 302 341 341 317 316 232 202 203 110 294 228 231 169 184 212 220 218 195
314 324 322 323 326 328 332 332 333 339 318 191 193 49 243 94 319 53 100 19 33 55 101 150 38 90 170 163 24 323 81 337 16 140 194 120 264 281 199 184 229 216 228 230 203
308 315 318 322 321 321 326 323 318 330 268 177 58 157 286 110 139 124 38 169 194 11 356 260 61 132 49 106 354 351 245 215 303 190 140 190 267 254 198 209 229 225 229 223 189
360 337 320 323 322 322 329 280 18 32 314 249 292 339 329 215 158 83 351 17 220 221 27 82 53 106 71 129 226 196 234 249 239 224 210 253 262 273 254 222 229 229 230 220 202
7 354 349 328 325 329 347 16 19 8 39 242 321 300 151 321 8 55 11 2 316 89 218 218 114 219 215 206 250 141 227 243 249 343 272 249 274 276 275 247 242 229 231 214 165
355 346 341 327 323 337 60 71 132 176 312 308 231 135 109 193 309 184 29 194 182 240 157 29 232 224 199 171 188 182 256 262 282 12 343 302 290 287 281 246 247 223 211 158 134
348 338 330 320 330 44 79 95 110 143 169 305 336 121 170 97 256 215 156 214 211 239 198 191 19 137 167 208 221 207 206 239 237 331 263 310 294 331 263 246 331 41 106 115 149
343 334 325 324 58 135 68 319 196 123 52 250 159 272 194 121 268 199 341 200 243 227 223 240 211 177 201 241 158 282 89 80 19 49 267 47 282 293 274 277 221 195 164 159 146
332 321 325 358 31 71 112 346 155 48 357 216 190 29 3 204 11 198 333 22 230 186 100 262 169 218 171 214 160 209 94 189 135 101 44 1 64 270 358 284 254 223 172 175 228
296 289 307 19 56 87 348 1 79 40 255 14 76 11 326 201 215 110 26 342 295 293 211 240 306 251 200 84 128 117 76 53 57 89 17 234 131 278 204 211 153 104 172 217 296
50 34 47 29 125 330 278 76 39 213 311 307 348 342 312 282 254 50 358 272 247 335 274 175 199 71 354 131 90 78 67 327 351 9 227 248 354 249 264 224 200 191 222 262 271
31 21 28 55 342 328 144 57 146 241 233 98 217 301 257 4 36 345 328 296 259 236 355 334 293 340 3 154 192 173 153 159 221 239 272 347 239 255 222 257 246 246 249 269 282
319 32 45 351 339 335 90 92 205 202 339 7 330 36 273 263 191 6 236 258 97 199 148 302 264 15 53 23 71 176 198 151 100 68 30 233 284 289 232 291 296 287 264 290 277
112 65 357 313 351 13 88 240 211 74 60 284 218 15 293 268 26 77 238 340 92 47 155 27 297 136 85 40 40 124 154 67 10 28 292 288 283 246 303 282 309 295 282 295 290
151 184 283 320 12 63 176 220 206 98 30 173 243 253 253 285 210 234 271 65 5 14 354 148 164 214 9 198 180 88 261 59 113 124 175 298 268 218 217 217 246 276 292 274 275
220 233 291 359 65 349 165 204 74 145 98 188 201 247 204 269 253 250 251 248 53 313 211 153 262 262 243 256 259 226 196 145 121 256 198 146 272 202 215 232 245 281 293 265 216
151 124 314 11 147 235 124 86 92 176 194 180 210 206 148 222 301 239 290 158 167 209 167 157 223 279 249 54 354 233 209 145 119 76 207 143 261 302 279 283 274 269 296 306 285
128 182 347 49 40 152 141 207 213 208 219 208 233 112 115 321 246 278 257 176 166 191 228 334 257 250 248 210 121 234 231 196 136 127 194 232 287 288 298 295 315 290 281 281 283
191 211 172 185 214 194 139 186 179 193 220 211 237 217 176 255 294 236 244 281 168 204 188 216 241 219 263 272 198 230 200 194 201 193 189 256 230 279 293 285 273 268 278 281 276
157 152 59 134 119 141 203 216 219 135 158 215 225 176 201 216 201 259 194 198 327 167 202 189 261 284 269 155 187 258 220 214 218 235 279 275 287 282 291 302 287 255 236 250 246
247 34 118 166 147 158 204 204 206 97 234 230 203 207 249 267 350 320 321 270 212 178 214 220 265 346 268 298 300 297 221 179 196 223 178 188 228 309 301 287 261 258 205 224 220